Location: Monteux
(44.0348°N, 4.9972°E)
Time: 19:49:55
(UTC+00:00)

ISS - Visible Passes

Search period start: 24 September 2021 00:00
Search period end: 04 October 2021 00:00
Orbit: 419 x 423 km, 51.6° (Epoch: 24 September)

Date Brightness Start Highest point End Pass type
(mag) Time Alt. Az. Time Alt. Az. Time Alt. Az.
24 Sep -1.7 19:01:09 10° WNW 19:03:53 22° N 19:05:32 16° NE visible
24 Sep -0.2 20:38:25 10° NW 20:38:31 11° NW 20:38:31 11° NW visible
25 Sep -1.8 18:13:58 10° WNW 18:16:47 24° N 18:19:36 10° NE visible
25 Sep -1.4 19:51:31 10° NW 19:53:21 21° NNW 19:53:21 21° NNW visible
26 Sep -1.9 19:04:32 10° NW 19:07:17 22° N 19:08:10 20° NNE visible
27 Sep -1.8 18:17:28 10° NW 18:20:10 22° N 18:22:53 10° NE visible
27 Sep -1.3 19:54:29 10° NW 19:55:58 22° NW 19:55:58 22° NW visible
28 Sep -2.5 19:07:35 10° NW 19:10:37 30° NNE 19:10:47 29° NNE visible
29 Sep -2.2 18:20:39 10° NW 18:23:32 25° NNE 18:25:39 14° ENE visible
29 Sep -1.2 19:57:22 10° WNW 19:58:38 21° NW 19:58:38 21° NW visible
30 Sep -3.3 19:10:28 10° NW 19:13:31 51° N 19:13:31 51° N visible
01 Oct -2.9 18:23:35 10° NW 18:26:47 38° NNE 18:28:27 22° ENE visible
01 Oct -0.8 20:00:28 10° WNW 20:01:27 17° W 20:01:27 17° W visible
02 Oct -3.3 19:13:25 10° WNW 19:16:27 58° WSW 19:16:27 58° WSW visible
03 Oct -3.8 18:26:26 10° WNW 18:29:49 83° NNE 18:31:31 27° ESE visible
03 Oct -0.4 20:04:22 10° W 20:04:31 11° W 20:04:31 11° W visible
